Location: Oleiros
(39.9202°N, 7.9139°W)
Time: 20:04:16
(UTC+01:00)

Hubble Space Telescope - Visible Passes

Search period start: 21 April 2019 00:00
Search period end: 01 May 2019 00:00
Orbit: 537 x 540 km, 28.5° (Epoch: 21 April)

Date Brightness Start Highest point End Pass type
(mag) Time Alt. Az. Time Alt. Az. Time Alt. Az.
25 Apr 3.1 05:34:23 10° S 05:35:47 11° SSE 05:37:12 10° SE visible
26 Apr 2.9 05:23:46 11° S 05:25:09 13° SSE 05:27:05 10° SE visible
27 Apr 2.8 05:13:44 14° S 05:14:32 14° S 05:16:46 10° SE visible
28 Apr 2.7 05:03:42 15° S 05:03:54 15° S 05:06:21 10° SE visible
29 Apr 2.7 04:53:41 16° SSE 04:53:41 16° SSE 04:55:51 10° SE visible
30 Apr 2.8 04:43:44 15° SSE 04:43:44 15° SSE 04:45:18 10° SE visible
